Regional Weather Roundup
Issued by NWS Sterling, VA

Home | Current Version | Previous Version | Graphics & Text | Print | Product List | Glossary On
Versions: 1 2 3 4 5 6 7 8 9 10 11 12 13 14 15 16 17 18 19 20 21 22 23 24 25 26 27 28 29 30 31 32 33 34 35 36 37 38 39 40 41 42 43 44 45 46 47 48 49 50
000
ASUS41 KLWX 060810
RWRLWX

REGIONAL WEATHER ROUNDUP
NATIONAL WEATHER SERVICE BALTIMORE MD/WASHINGTON DC
300 AM EST FRI MAR 06 2015

Note: "FAIR" indicates few or no clouds below 12,000 feet
with no significant weather and/or obstructions to visibility.
 TC=TEMPERATURE CELSIUS

 * =Non NWS site. Station does not report precipitation (e.g. rain,
    snow, etc.), thunder, or fog.

DCZ001-MDZ009-015-VAZ040>042-051-053>054-060900-
WASHINGTON METRO

CITY           SKY/WX    TMP DP  RH WIND       PRES   REMARKS
WASHINGTON NAT CLEAR     19   4  51 N14       30.50S WCI   6
DULLES         PTCLDY    15   1  53 NW12      30.49R WCI   2
ANDREWS AFB    CLEAR     15   4  61 NW9       30.46R WCI   4
FT BELVOIR     CLEAR     17   4  56 NW5       30.50R
QUANTICO       CLEAR     19   5  54 N13G24    30.51S WCI   6
COLLEGE PARK*  CLEAR     18   7  62 NW6       30.48F
LEESBURG*      PTCLDY    16   5  62 E5        30.50R
MANASSAS*      PTCLDY    14   7  73 N8        30.50R WCI   3
GAITHERSBURG*  PTCLDY    12   0  57 NW5       30.50S

$$

MDZ006>007-011-014-060900-
BALTIMORE METRO

CITY           SKY/WX    TMP DP  RH WIND       PRES   REMARKS
BWI AIRPORT    CLEAR     14   4  64 NW7       30.48R
MD SCIENCE CTR   N/A     18   4  54 MISG      30.50F
MARTIN STATE   CLEAR     19   9  63 NW8       30.50R WCI   9
ANNAPOLIS      CLEAR     20   9  62 NW14      30.48R WCI   7
FORT MEADE*    CLEAR     14   7  73 CALM      30.50S

$$

MDZ012-015-019>023-060900-
MARYLAND EASTERN SHORE

CITY           SKY/WX    TMP DP  RH WIND       PRES   REMARKS
OCEAN CITY     CLEAR     20  10  65 N12       30.42R WCI   8
SALISBURY      FAIR      21  11  65 N12       30.43R WCI   9
BAY BRIDGE AP*   N/A     21   7  53 N14G21    30.48R WCI   8
CAMBRIDGE*     CLEAR     23  10  58 N12G17    30.45R WCI  12
EASTON*        CLEAR     21   9  60 N6        30.49R

$$

MDZ017>025-060900-
SOUTHERN MARYLAND

CITY           SKY/WX    TMP DP  RH WIND       PRES   REMARKS
PATUXENT RIVER CLEAR     19   9  65 NW17      30.46R WCI   4
ST INIGOES     CLEAR     21  10  62 VRB6      30.45R
LEONARDTOWN*   CLEAR     19   9  63 CALM      30.47S

$$

MDZ003>005-060900-
NORTH CENTRAL MARYLAND

CITY           SKY/WX    TMP DP  RH WIND       PRES   REMARKS
FREDERICK*     PTCLDY    14   0  52 N7        30.52F
HAGERSTOWN APT PTCLDY     8  -3  61 CALM      30.47R
WESTMINSTER*   PTCLDY    10   0  61 NW5       30.43S

$$

MDZ501>502-060900-
WESTERN MARYLAND

CITY           SKY/WX    TMP DP  RH WIND       PRES   REMARKS
OAKLAND*       CLEAR      1   1 100 NW7       30.28S
CUMBERLAND*    CLEAR     14   0  52 N8        30.53S WCI   3

$$

VAZ025>031-060900-
SHENANDOAH VALLEY

CITY           SKY/WX    TMP DP  RH WIND       PRES   REMARKS
WINCHESTER*    PTCLDY    12  -2  52 CALM      30.47F
FRONT ROYAL*   FAIR      12   3  67 CALM      30.45F
LURAY*         FAIR       7   5  92 CALM      30.43F
NEW MARKET*    FAIR      -1  -4  86 CALM      30.43F
STAUNTON*      PTCLDY     8   3  80 CALM      30.42S
WAYNESBORO*    FAIR       9   5  85 N6        30.37S

$$

WVZ021-048>050-054>055-060900-
EASTERN WEST VIRGINIA PANHANDLE

CITY           SKY/WX    TMP DP  RH WIND       PRES   REMARKS
MARTINSBURG    PTCLDY     5  -3  69 NW3       30.48F
PETERSBURG*    NOT AVBL

$$

VAZ036>039-050-060900-
CENTRAL FOOTHILLS

CITY           SKY/WX    TMP DP  RH WIND       PRES   REMARKS
CHARLOTTESVILL PTCLDY    15   6  67 E7        30.43F
CULPEPER*      PTCLDY    18   3  53 NE7G16    30.48F
ORANGE*        PTCLDY    18   9  68 N6        30.47S
GORDONSVILLE*  FAIR      12   5  74 CALM      30.45S
WARRENTON*     FAIR      16   8  71 N10       30.47S WCI   4

$$

VAZ055>057-060900-
NORTH AND CENTRAL PIEDMONT

CITY           SKY/WX    TMP DP  RH WIND       PRES   REMARKS
FREDERICKSBRG* PTCLDY    18  10  71 CALM      30.49S
STAFFORD*      CLEAR     14   3  63 CALM      30.52F

$$

NCZ024-NYZ072-PAZ021-071-VAZ022-071-060900-
OTHER REGIONAL OBSERVATIONS

CITY           SKY/WX    TMP DP  RH WIND       PRES   REMARKS
NEW YORK CITY  CLEAR     14   2  58 N7        30.44R
PHILADELPHIA   CLEAR     15   3  59 N15       30.48R WCI   0
PITTSBURGH     MOCLDY     0  -5  79 CALM      30.47S
ROANOKE        PTCLDY    16   8  71 W6        30.43R
RICHMOND       CLEAR     20  11  68 N13       30.45S WCI   7
RALEIGH        MOCLDY    30  21  69 NE6       30.38R

$$

ANZ530>537-060900-
MARINE OBSERVATIONS

STATION/POSITION TIME  TEMP    WIND        PRES
                       AIR SEA DIR/SP/G
                 (UTC) (F)     (DEG/KT/KT) (MB)
THOMAS PT LIGHT  0800          140/ 17/ 21   N/A
BALT KEY BRIDGE  0700                      1032.0R
COVE POINT       0700                      1030.9R
LEWISETTA        0700                      1030.9R
SOLOMONS ISLAND  0700      32                N/A

$$




USA.gov is the U.S. government's official web portal to all federal, state and local government web resources and services.